{"data":{"norad_id":43029,"intl_designator":"2017-075B","name":"YAOGAN-30 03B","alt_names":[],"object_type":"PAYLOAD","status":"ACTIVE","operator":null,"country":"PRC","launch_date":"2017-11-24","launch_site_code":"XICLF","launch_vehicle":null,"mission":null,"orbit_class":"UNKNOWN","rcs_meters":null,"size_class":null,"mass_kg":null,"dimensions":null,"purposes":[],"wikipedia_slug":null,"has_3d_model":false,"image_url":null,"decayed_at":null,"tle_current":{"epoch":"2026-09-20T03:14:54.616704Z","epoch_age_seconds":83109,"freshness":"FRESH","line1":"1 43029U 17075B   26263.13535436  .00001610  00000+0  11932-3 0  9993","line2":"2 43029  34.9941  51.3456 0004018 341.2836  18.7724 15.03025685481652","mean_motion":15.03025685,"eccentricity":0.0004018,"inclination_deg":34.9941,"raan_deg":51.3456,"arg_perigee_deg":341.2836,"mean_anomaly_deg":18.7724,"bstar":0.00011932,"rev_number":48165,"period_min":95.806745977199,"perigee_km":554.78592233911,"apogee_km":560.35945864639,"semimajor_km":6935.7096904927,"source":"CELESTRAK","updated_at":"2026-09-20T09:00:14.266864Z"}}}